カタログに戻る

STARLINK-30703

運用中通信VLEO
NORAD 57954·PAYLOAD·🇺🇸 United States

打ち上げ Sep 25, 2023 から Vandenberg Space Force Base

Loading…

次のパス (今後24時間)

TLE

最新Source: CelesTrak SupGP

元期: Sep 15, 2026, 03:01 UTC

1 57954C 23148V   26258.12618056 -.00059425  00000+0 -17559-2 0  2583
2 57954  53.1575 210.5539 0001311  85.6631  96.2414 15.34416428    13

AllMySatでSTARLINK-30703をリアルタイム追跡

Download on the App Store